Météo par heure à Al Hilla

Ce jour, 26 Octobre, Lundi

Heure Température Précipitation Vent Pression Humidité
00:00 +24°C° 0 mm 2 m/s 756 mmHg 16%
01:00 +23°C° 0 mm 2 m/s 756 mmHg 16%
02:00 +23°C° 0 mm 2 m/s 756 mmHg 16%
03:00 +21°C° 0 mm 2 m/s 756 mmHg 16%
04:00 +20°C° 0 mm 2 m/s 756 mmHg 16%
05:00 +21°C° 0 mm 1 m/s 756 mmHg 17%
06:00 +20°C° 0 mm 1 m/s 757 mmHg 17%
07:00 +24°C° 0 mm 1 m/s 757 mmHg 14%
08:00 +27°C° 0 mm 1 m/s 757 mmHg 12%
09:00 +31°C° 0 mm 1 m/s 758 mmHg 9%
10:00 +33°C° 0 mm 1 m/s 758 mmHg 8%
11:00 +34°C° 0 mm 1 m/s 757 mmHg 7%
12:00 +36°C° 0 mm 1 m/s 757 mmHg 6%
13:00 +37°C° 0 mm 1 m/s 757 mmHg 5%
14:00 +37°C° 0 mm 1 m/s 756 mmHg 5%
15:00 +35°C° 0 mm 0 m/s 756 mmHg 5%
16:00 +34°C° 0 mm 1 m/s 756 mmHg 7%
17:00 +31°C° 0 mm 2 m/s 756 mmHg 10%
18:00 +28°C° 0 mm 3 m/s 756 mmHg 12%
19:00 +27°C° 0 mm 3 m/s 756 mmHg 12%
20:00 +26°C° 0 mm 3 m/s 757 mmHg 12%
21:00 +26°C° 0 mm 3 m/s 757 mmHg 11%
22:00 +25°C° 0 mm 3 m/s 757 mmHg 12%
23:00 +25°C° 0 mm 3 m/s 757 mmHg 12%

Demain, 27 Octobre, Mardi

Heure Température Précipitation Vent Pression Humidité
00:00 +24°C° 0 mm 3 m/s 756 mmHg 13%
01:00 +24°C° 0 mm 3 m/s 756 mmHg 14%
02:00 +23°C° 0 mm 2 m/s 756 mmHg 15%
03:00 +23°C° 0 mm 2 m/s 756 mmHg 16%
04:00 +21°C° 0 mm 2 m/s 756 mmHg 16%
05:00 +21°C° 0 mm 3 m/s 757 mmHg 17%
06:00 +21°C° 0 mm 3 m/s 757 mmHg 17%
07:00 +25°C° 0 mm 2 m/s 757 mmHg 15%
08:00 +28°C° 0 mm 2 m/s 757 mmHg 12%
09:00 +31°C° 0 mm 1 m/s 758 mmHg 10%
10:00 +34°C° 0 mm 2 m/s 758 mmHg 9%
11:00 +36°C° 0 mm 2 m/s 758 mmHg 8%
12:00 +37°C° 0 mm 2 m/s 757 mmHg 8%
13:00 +38°C° 0 mm 3 m/s 757 mmHg 8%
14:00 +38°C° 0 mm 4 m/s 757 mmHg 7%
15:00 +38°C° 0 mm 4 m/s 756 mmHg 7%
16:00 +35°C° 0 mm 4 m/s 756 mmHg 9%
17:00 +32°C° 0 mm 4 m/s 756 mmHg 11%
18:00 +28°C° 0 mm 3 m/s 756 mmHg 13%
19:00 +27°C° 0 mm 3 m/s 756 mmHg 13%
20:00 +26°C° 0 mm 3 m/s 756 mmHg 14%
21:00 +26°C° 0 mm 3 m/s 757 mmHg 15%
22:00 +25°C° 0 mm 3 m/s 756 mmHg 15%
23:00 +25°C° 0 mm 3 m/s 756 mmHg 15%

Après-demain, 28 Octobre, Mercredi

Heure Température Précipitation Vent Pression Humidité
00:00 +24°C° 0 mm 3 m/s 756 mmHg 15%
01:00 +24°C° 0 mm 3 m/s 756 mmHg 16%
02:00 +22°C° 0 mm 3 m/s 756 mmHg 16%
03:00 +22°C° 0 mm 3 m/s 756 mmHg 16%
04:00 +22°C° 0 mm 3 m/s 756 mmHg 16%
05:00 +21°C° 0 mm 3 m/s 756 mmHg 16%
06:00 +21°C° 0 mm 3 m/s 757 mmHg 16%
07:00 +25°C° 0 mm 3 m/s 757 mmHg 14%
08:00 +28°C° 0 mm 4 m/s 758 mmHg 12%
09:00 +32°C° 0 mm 4 m/s 758 mmHg 10%
10:00 +34°C° 0 mm 4 m/s 758 mmHg 10%
11:00 +35°C° 0 mm 5 m/s 757 mmHg 9%
12:00 +37°C° 0 mm 5 m/s 757 mmHg 8%
13:00 +37°C° 0 mm 5 m/s 757 mmHg 8%
14:00 +39°C° 0 mm 5 m/s 757 mmHg 8%
15:00 +39°C° 0 mm 5 m/s 756 mmHg 7%
16:00 +35°C° 0 mm 4 m/s 756 mmHg 9%
17:00 +32°C° 0 mm 4 m/s 756 mmHg 11%
18:00 +28°C° 0 mm 3 m/s 756 mmHg 13%
19:00 +28°C° 0 mm 3 m/s 757 mmHg 14%
20:00 +27°C° 0 mm 3 m/s 757 mmHg 14%
21:00 +26°C° 0 mm 3 m/s 757 mmHg 15%
22:00 +26°C° 0 mm 3 m/s 757 mmHg 15%
23:00 +25°C° 0 mm 3 m/s 757 mmHg 16%

29 Octobre, Jeudi

Heure Température Précipitation Vent Pression Humidité
00:00 +25°C° 0 mm 3 m/s 757 mmHg 16%
01:00 +24°C° 0 mm 3 m/s 757 mmHg 16%
02:00 +24°C° 0 mm 3 m/s 757 mmHg 17%
03:00 +22°C° 0 mm 3 m/s 756 mmHg 17%
04:00 +21°C° 0 mm 2 m/s 757 mmHg 17%
05:00 +21°C° 0 mm 2 m/s 757 mmHg 18%
06:00 +20°C° 0 mm 2 m/s 757 mmHg 18%
07:00 +24°C° 0 mm 3 m/s 758 mmHg 15%
08:00 +28°C° 0 mm 4 m/s 758 mmHg 13%
09:00 +32°C° 0 mm 4 m/s 759 mmHg 10%
10:00 +34°C° 0 mm 4 m/s 758 mmHg 9%
11:00 +36°C° 0 mm 5 m/s 758 mmHg 8%
12:00 +37°C° 0 mm 5 m/s 758 mmHg 7%
13:00 +38°C° 0 mm 4 m/s 758 mmHg 7%
14:00 +38°C° 0 mm 4 m/s 757 mmHg 6%
15:00 +38°C° 0 mm 4 m/s 757 mmHg 6%
16:00 +35°C° 0 mm 4 m/s 757 mmHg 8%
17:00 +31°C° 0 mm 3 m/s 757 mmHg 10%
18:00 +28°C° 0 mm 3 m/s 757 mmHg 12%
19:00 +27°C° 0 mm 3 m/s 757 mmHg 12%
20:00 +26°C° 0 mm 3 m/s 757 mmHg 13%
21:00 +25°C° 0 mm 3 m/s 757 mmHg 14%
22:00 +24°C° 0 mm 2 m/s 757 mmHg 15%
23:00 +23°C° 0 mm 2 m/s 757 mmHg 16%

30 Octobre, Vendredi

Heure Température Précipitation Vent Pression Humidité
00:00 +21°C° 0 mm 2 m/s 757 mmHg 17%
01:00 +21°C° 0 mm 2 m/s 757 mmHg 16%
02:00 +21°C° 0 mm 2 m/s 757 mmHg 16%
03:00 +21°C° 0 mm 2 m/s 757 mmHg 15%
04:00 +21°C° 0 mm 1 m/s 757 mmHg 18%
05:00 +20°C° 0 mm 1 m/s 757 mmHg 21%
06:00 +20°C° 0 mm 1 m/s 757 mmHg 24%
07:00 +24°C° 0 mm 1 m/s 758 mmHg 19%
08:00 +28°C° 0 mm 1 m/s 758 mmHg 13%
09:00 +32°C° 0 mm 1 m/s 758 mmHg 8%
10:00 +33°C° 0 mm 1 m/s 758 mmHg 7%
11:00 +35°C° 0 mm 1 m/s 758 mmHg 6%
12:00 +36°C° 0 mm 1 m/s 758 mmHg 6%
13:00 +37°C° 0 mm 1 m/s 757 mmHg 6%
14:00 +37°C° 0 mm 1 m/s 757 mmHg 6%
15:00 +39°C° 0 mm 1 m/s 756 mmHg 5%
16:00 +35°C° 0 mm 2 m/s 756 mmHg 10%
17:00 +30°C° 0 mm 2 m/s 756 mmHg 14%
18:00 +27°C° 0 mm 2 m/s 756 mmHg 19%
19:00 +26°C° 0 mm 2 m/s 756 mmHg 19%
20:00 +24°C° 0 mm 1 m/s 756 mmHg 20%
21:00 +23°C° 0 mm 1 m/s 756 mmHg 21%
22:00 +23°C° 0 mm 1 m/s 756 mmHg 24%
23:00 +22°C° 0 mm 1 m/s 756 mmHg 28%

31 Octobre, Samedi

Heure Température Précipitation Vent Pression Humidité
00:00 +22°C° 0 mm 1 m/s 756 mmHg 31%
01:00 +21°C° 0 mm 1 m/s 756 mmHg 32%
02:00 +21°C° 0 mm 1 m/s 756 mmHg 32%
03:00 +20°C° 0 mm 1 m/s 755 mmHg 33%
04:00 +20°C° 0 mm 1 m/s 756 mmHg 31%
05:00 +20°C° 0 mm 1 m/s 756 mmHg 29%
06:00 +20°C° 0 mm 1 m/s 756 mmHg 28%
07:00 +24°C° 0 mm 1 m/s 756 mmHg 21%
08:00 +28°C° 0 mm 2 m/s 756 mmHg 15%
09:00 +31°C° 0 mm 2 m/s 757 mmHg 9%
Voir plus

Nous avons besoin de votre consentement

Meteoprog et ses fournisseurs de services peuvent stocker et accéder à des données personnelles telles que des cookies, des identifiants d'appareils ou d'autres technologies similaires sur votre appareil et traiter ces données pour personnaliser le contenu et les publicités, ainsi que pour fournir des fonctionnalités de médias sociaux et analyser le trafic.

  • Stocker et/ou accéder à des informations sur votre appareil

    Des cookies, des identifiants d'appareils ou d'autres informations peuvent être stockés ou accessibles sur votre appareil aux fins indiquées ci-dessus.

  • Annonces et contenus personnalisés, mesure des annonces et des contenus, connaissance de l'audience et développement de produits

    Les annonces et le contenu peuvent être personnalisés en fonction d'un profil. D'autres données peuvent être ajoutées pour mieux personnaliser les annonces et le contenu. Les performances des publicités et du contenu peuvent être mesurées. Il est possible d'obtenir des informations sur le public qui a vu les publicités et le contenu. Ces données peuvent être utilisées pour développer ou améliorer l'expérience de l'utilisateur, les systèmes et les logiciels.

En cliquant sur "J'accepte", vous autorisez l'utilisation de cookies, des identifiants d'appareils, des balises web ou d'autres technologies similaires. Vos paramètres peuvent être modifiés dans le navigateur de votre appareil.

Dans certains cas, des intérêts légitimes peuvent être invoqués plutôt qu'un consentement. Vous pouvez en savoir plus à ce sujet dans notre Politique de confidentialité et de cookies.